Flag for Moldova Weather past 2 weeks in Tiraspol, Moldova

Now
93 °F

Scattered clouds.


Feels Like: 91 °F
Forecast: 66 / 82 °F
Wind: 8 mph from South

Location: Chisinau International Airport

Current Time: Jul 30, 2015 at 2:05:47 PM

Latest Report: Jul 30, 2015 at 1:30 PM


Visibility: N/A

Pressure: 29.80 "Hg

Humidity: 28%

Dew point: 55 °F

Location of TiraspolLocation

Historic Weather in Tiraspol — Graph

°F

Tiraspol temperature yesterday

Maximum temperature yesterday: 93 °F (at 4:30 PM)
Minimum temperature yesterday: 59 °F (at 5:00 AM)
Average temperature yesterday: 78 °F

Past Weeks' High & Low Weather Summary

 TemperatureHumidityPressure
High97 °F (Jul 26, 1:30 PM)88% (Jul 15, 4:30 PM)30.12 "Hg (Jul 15, 4:30 PM)
Low57 °F (Jul 16, 4:00 AM)18% (Jul 25, 4:30 PM)29.62 "Hg (Jul 26, 3:00 PM)
Average78 °F47%29.90 "Hg
* Reported Jul 15 1:00 PM — Jul 30 1:00 PM, Tiraspol, Weather by CustomWeather, © 2015

Note: Actual official high and low records may vary slightly from our data, if they occured in-between our weather recording intervals... More about our weather records

Advertising

Tiraspol weather history for previous 24 hours

 ConditionsComfort  
Time TempWeatherWind HumidityBarometerVisibility
1:00 PM
Thu, Jul 30
91 °FPassing clouds.9 mph30%29.80 "HgN/A
12:30 PM90 °FSunny.12 mph31%29.80 "Hg10 mi
12:00 PM90 °FSunny.12 mph33%29.80 "Hg10 mi
11:30 AM88 °FSunny.10 mph35%29.80 "Hg10 mi
11:00 AM86 °FPassing clouds.12 mph38%29.80 "HgN/A
10:30 AM86 °FSunny.9 mph40%29.80 "Hg10 mi
10:00 AM84 °FPassing clouds.9 mph45%29.83 "HgN/A
9:30 AM82 °FSunny.10 mph45%29.83 "Hg10 mi
9:00 AM81 °FSunny.10 mph51%29.80 "Hg10 mi
8:30 AM79 °FSunny.9 mph58%29.80 "Hg10 mi
8:00 AM77 °FSunny.9 mph61%29.80 "Hg10 mi
7:30 AM75 °FSunny.6 mph65%29.83 "Hg10 mi
7:00 AM73 °FSunny.7 mph69%29.80 "Hg10 mi
6:30 AM73 °FClear.8 mph69%29.80 "Hg10 mi
6:00 AM73 °FClear.8 mph69%29.80 "Hg10 mi
5:30 AM73 °FClear.9 mph69%29.80 "Hg10 mi
5:00 AM73 °FClear.9 mph69%29.80 "Hg10 mi
4:30 AM73 °FClear.9 mph69%29.80 "Hg10 mi
4:00 AM75 °FClear.10 mph65%29.80 "Hg10 mi
3:30 AM75 °FClear.8 mph65%29.80 "Hg10 mi
3:00 AM75 °FClear.No wind65%29.80 "Hg10 mi
2:30 AM75 °FPassing clouds.6 mph65%29.80 "HgN/A
2:00 AM77 °FClear.1 mph57%29.80 "Hg10 mi
1:30 AM77 °FClear.2 mph57%29.80 "Hg10 mi
1:00 AM77 °FPassing clouds.7 mph57%29.80 "HgN/A
12:30 AM79 °FPassing clouds.8 mph54%29.80 "HgN/A
12:00 AM79 °FPassing clouds.9 mph54%29.80 "HgN/A
11:30 PM
Wed, Jul 29
81 °FClear.12 mph48%29.80 "Hg10 mi
11:00 PM81 °FClear.12 mph48%29.80 "Hg10 mi
10:30 PM81 °FClear.13 mph48%29.80 "Hg10 mi
10:00 PM82 °FPassing clouds.13 mph45%29.77 "HgN/A
9:30 PM82 °FPassing clouds.12 mph45%29.77 "HgN/A
9:00 PM82 °FScattered clouds.10 mph45%29.77 "HgN/A
8:30 PM84 °FScattered clouds.12 mph45%29.77 "HgN/A
8:00 PM84 °FScattered clouds.14 mph45%29.77 "HgN/A
7:30 PM86 °FScattered clouds.14 mph38%29.77 "HgN/A
7:00 PM86 °FScattered clouds.17 mph35%29.77 "HgN/A
6:30 PM88 °FScattered clouds.15 mph33%29.77 "HgN/A
6:00 PM90 °FScattered clouds.20 mph33%29.77 "HgN/A
5:30 PM90 °FScattered clouds.15 mph31%29.77 "HgN/A
5:00 PM91 °FScattered clouds.13 mph28%29.77 "HgN/A
4:30 PM93 °FScattered clouds.10 mph28%29.77 "HgN/A
4:00 PM91 °FScattered clouds.9 mph28%29.77 "HgN/A
3:30 PM91 °FScattered clouds.12 mph26%29.80 "HgN/A
3:00 PM90 °FScattered clouds.8 mph27%29.80 "HgN/A
2:30 PM91 °FScattered clouds.10 mph24%29.80 "HgN/A
2:00 PM90 °FScattered clouds.10 mph26%29.83 "HgN/A
Weather by CustomWeather, © 2015

See weather overviewHow to use our weather pages